Paducah, KY

12:20 PM CDT on June 25, 2017 (GMT -0500)
Barkley Regional

Weather History for KPAH - June, 2013

Change the Weather History Date:

Saturday, June 29, 2013

  Actual Average Record
Temperature  
Mean Temperature 75 °F 78 °F  
Max Temperature 86 °F 89 °F 108 °F (2012)
Min Temperature 63 °F 68 °F 57 °F (1950)
Degree Days  
Heating Degree Days 0 0  
Month to date heating degree days 0 0  
Since 1 June heating degree days 0 0  
Since 1 July heating degree days 4210 4128  
Cooling Degree Days 10 13  
Month to date cooling degree days 319 304  
Year to date cooling degree days 497 476  
Since 1 June cooling degree days 319 304  
Growing Degree Days 25 (Base 50)    
Moisture  
Dew Point 61 °F    
Average Humidity 69    
Maximum Humidity 93    
Minimum Humidity 44    
Precipitation  
Precipitation T in 0.13 in 3.02 in (2007)
Month to date precipitation 8.33 3.92  
Year to date precipitation 33.80 25.14  
Snow  
Snow 0.00 in 0.00 in 0.00 in (2002)
Month to date snowfall 0.0 0.0  
Since 1 June snowfall 0.0 0.0  
Since 1 July snowfall 6.8 9.1  
Snow Depth 0.00 in    
Sea Level Pressure  
Sea Level Pressure 29.67 in    
Wind  
Wind Speed 8 mph (West)    
Max Wind Speed 30 mph    
Max Gust Speed 46 mph    
Visibility 10 miles    
Events Rain    
T = Trace of Precipitation, MM = Missing Value Source: NWS Daily Summary

Daily Weather History Graph

Daily Weather History Graph

Search for Another Location

Airport or City:

Trip Planner

Search our weather history database for the weather conditions in past years. The results will help you decide how hot, cold, wet, or windy it might be!

Date:

Astronomy

Jun. 29, 2013 Rise Set
Actual Time 5:38 AM CDT 8:18 PM CDT
Civil Twilight 5:07 AM CDT 8:49 PM CDT
Nautical Twilight 4:29 AM CDT 9:28 PM CDT
Astronomical Twilight 3:45 AM CDT 10:11 PM CDT
Moon No Moon Rise 12:39 PM CDT (6/29)
Length of Visible Light 15h 42m
Length of Day
14h 40m
Waning Gibbous, 55% of the Moon is Illuminated
Jun 29
Waning Gibbous
Jun 29
Last Quarter
Jul 8
New
Jul 15
First Quarter
Jul 22
Full

Hourly Weather History & Observations

Time (CDT) Temp. Heat Index Dew Point Humidity Pressure Visibility Wind Dir Wind Speed Gust Speed Precip Events Conditions
12:53 AM 69.1 °F - 59.0 °F 70% 29.70 in 10.0 mi WSW 6.9 mph - N/A   Clear
1:53 AM 70.0 °F - 57.9 °F 65% 29.68 in 10.0 mi WSW 6.9 mph - N/A   Clear
2:53 AM 69.1 °F - 59.0 °F 70% 29.68 in 10.0 mi WSW 8.1 mph - N/A   Clear
3:53 AM 68.0 °F - 60.1 °F 76% 29.66 in 10.0 mi WSW 8.1 mph - N/A   Clear
4:53 AM 66.0 °F - 60.1 °F 81% 29.67 in 10.0 mi West 5.8 mph - N/A   Clear
5:53 AM 66.9 °F - 60.1 °F 79% 29.68 in 10.0 mi West 5.8 mph - N/A   Clear
6:53 AM 70.0 °F - 61.0 °F 73% 29.68 in 10.0 mi West 6.9 mph - N/A   Partly Cloudy
8:53 AM 78.1 °F - 62.1 °F 58% 29.69 in 10.0 mi NW 6.9 mph - N/A   Clear
9:53 AM 80.1 °F 81.1 °F 61.0 °F 52% 29.68 in 10.0 mi NW 13.8 mph 20.7 mph N/A   Clear
10:53 AM 79.0 °F - 61.0 °F 54% 29.68 in 10.0 mi WNW 11.5 mph 18.4 mph N/A   Mostly Cloudy
11:53 AM 82.0 °F 83.1 °F 63.0 °F 52% 29.68 in 10.0 mi WNW 9.2 mph - N/A   Scattered Clouds
12:53 PM 82.0 °F 83.0 °F 62.1 °F 51% 29.67 in 10.0 mi WNW 8.1 mph - N/A   Mostly Cloudy
1:53 PM 81.0 °F 81.7 °F 61.0 °F 50% 29.66 in 10.0 mi WNW 5.8 mph 16.1 mph N/A   Mostly Cloudy
2:53 PM 82.9 °F 83.7 °F 62.1 °F 49% 29.65 in 10.0 mi West 10.4 mph - N/A   Partly Cloudy
3:53 PM 84.9 °F 85.0 °F 61.0 °F 44% 29.63 in 10.0 mi NW 11.5 mph 19.6 mph N/A   Clear
4:53 PM 82.9 °F 83.2 °F 60.1 °F 46% 29.62 in 10.0 mi West 12.7 mph - N/A   Scattered Clouds
5:53 PM 84.0 °F 84.9 °F 63.0 °F 49% 29.63 in 10.0 mi NW 8.1 mph - N/A   Mostly Cloudy
6:53 PM 80.1 °F 80.7 °F 59.0 °F 48% 29.65 in 10.0 mi WNW 6.9 mph - N/A   Partly Cloudy
7:16 PM 75.2 °F - 57.2 °F 53% 29.70 in 10.0 mi NNW 29.9 mph 46.0 mph N/A   Squalls
7:53 PM 70.0 °F - 60.1 °F 71% 29.69 in 10.0 mi North 10.4 mph 19.6 mph 0.00 in Rain Light Rain
8:53 PM 66.0 °F - 62.1 °F 87% 29.68 in 10.0 mi WNW 5.8 mph - 0.00 in   Partly Cloudy
9:53 PM 64.0 °F - 62.1 °F 93% 29.70 in 10.0 mi West 4.6 mph - N/A   Clear
10:53 PM 64.0 °F - 61.0 °F 90% 29.70 in 10.0 mi SW 4.6 mph - N/A   Scattered Clouds
11:53 PM 64.9 °F - 61.0 °F 87% 29.70 in 10.0 mi West 5.8 mph - N/A   Mostly Cloudy